HI3LT-16 Weather Reports


time (UTC)temp
C
wind
direction
speed
KPH
gust
KPH
rain 1hr
cm
rain 24hr
cm
rain mn
cm
humidity
%
barometer
mb
20260507232407 31 60 14.5 0.0 0.00 0.00 0.00 58 1014.0
20260507231406 31 60 14.5 0.0 0.00 0.00 0.00 58 1014.0
20260507230404 31 60 14.5 0.0 0.00 0.00 0.00 58 1014.0
20260507225403 33 120 14.5 0.0 0.00 0.00 0.00 49 1014.0
20260507224403 33 120 14.5 0.0 0.00 0.00 0.00 49 1014.0
20260507223401 31 120 14.5 0.0 0.00 0.00 0.00 50 1014.0
20260507222359 31 120 14.5 0.0 0.00 0.00 0.00 50 1013.0
20260507221358 31 120 14.5 0.0 0.00 0.00 0.00 50 1013.0
20260507220357 31 120 14.5 0.0 0.00 0.00 0.00 50 1013.0
20260507215356 31 120 12.9 0.0 0.00 0.00 0.00 50 1013.0
20260507214355 31 120 12.9 0.0 0.00 0.00 0.00 50 1013.0
20260507213354 31 120 12.9 0.0 0.00 0.00 0.00 50 1013.0
20260507212352 31 120 12.9 0.0 0.00 0.00 0.00 50 1013.0
20260507211351 31 120 12.9 0.0 0.00 0.00 0.00 50 1013.0
20260507210350 31 120 12.9 0.0 0.00 0.00 0.00 50 1013.0
20260507205347 31 120 12.9 0.0 0.00 0.00 0.00 50 1013.0
20260507204345 31 120 12.9 0.0 0.00 0.00 0.00 50 1013.0
20260507203343 31 120 12.9 0.0 0.00 0.00 0.00 50 1013.0
20260507202342 31 120 12.9 0.0 0.00 0.00 0.00 50 1013.0
20260507201341 31 120 12.9 0.0 0.00 0.00 0.00 50 1013.0
20260507200339 31 120 12.9 0.0 0.00 0.00 0.00 50 1013.0
20260507195338 31 120 12.9 0.0 0.00 0.00 0.00 50 1013.0
20260507194337 31 120 12.9 0.0 0.00 0.00 0.00 50 1013.0
20260507193335 31 120 12.9 0.0 0.00 0.00 0.00 50 1013.0
20260507192334 31 120 12.9 0.0 0.00 0.00 0.00 50 1014.0
20260507191333 31 120 12.9 0.0 0.00 0.00 0.00 51 1014.0
20260507190331 31 110 12.9 0.0 0.00 0.00 0.00 52 1014.0
20260507185330 31 110 14.5 0.0 0.00 0.00 0.00 53 1014.0
20260507184329 31 110 14.5 0.0 0.00 0.00 0.00 53 1014.0
20260507183327 31 110 14.5 0.0 0.00 0.00 0.00 54 1014.0
20260507182326 31 110 14.5 0.0 0.00 0.00 0.00 55 1015.0
20260507181325 31 110 14.5 0.0 0.00 0.00 0.00 56 1015.0
20260507180323 31 90 12.9 0.0 0.00 0.00 0.00 58 1015.0
20260507175322 31 90 12.9 0.0 0.00 0.00 0.00 58 1015.0
20260507174320 31 90 12.9 0.0 0.00 0.00 0.00 58 1015.0
20260507173318 31 90 12.9 0.0 0.00 0.00 0.00 58 1015.0
20260507172315 31 90 12.9 0.0 0.00 0.00 0.00 58 1016.0
20260507171313 31 90 12.9 0.0 0.00 0.00 0.00 58 1016.0
20260507170311 31 90 14.5 0.0 0.00 0.00 0.00 58 1016.0
20260507165308 31 90 14.5 0.0 0.00 0.00 0.00 58 1016.0
20260507164306 31 90 14.5 0.0 0.00 0.00 0.00 58 1016.0
20260507163304 31 90 14.5 0.0 0.00 0.00 0.00 58 1016.0
20260507162301 31 90 14.5 0.0 0.00 0.00 0.00 58 1016.0
20260507161300 31 90 14.5 0.0 0.00 0.00 0.00 58 1016.0
20260507160259 28 90 12.9 0.0 0.00 0.00 0.00 63 1016.0
20260507155257 28 90 12.9 0.0 0.00 0.00 0.00 63 1016.0
20260507154255 28 90 12.9 0.0 0.00 0.00 0.00 63 1016.0
20260507153253 28 90 12.9 0.0 0.00 0.00 0.00 63 1016.0
20260507152250 28 90 12.9 0.0 0.00 0.00 0.00 64 1017.0
20260507151248 28 90 12.9 0.0 0.00 0.00 0.00 65 1017.0
20260507150247 27 90 14.5 0.0 0.00 0.00 0.00 67 1017.0
20260507145246 27 90 14.5 0.0 0.00 0.00 0.00 67 1017.0
20260507144244 27 90 14.5 0.0 0.00 0.00 0.00 67 1017.0
20260507143243 27 90 14.5 0.0 0.00 0.00 0.00 68 1017.0
20260507142241 27 90 14.5 0.0 0.00 0.00 0.00 69 1017.0
20260507141238 26 90 14.5 0.0 0.00 0.00 0.00 71 1017.0
20260507140237 26 110 9.7 0.0 0.00 0.00 0.00 74 1017.0
20260507135236 26 110 9.7 0.0 0.00 0.00 0.00 74 1017.0
20260507134235 26 110 9.7 0.0 0.00 0.00 0.00 74 1017.0
20260507133234 26 110 9.7 0.0 0.00 0.00 0.00 74 1017.0
20260507132233 26 110 9.7 0.0 0.00 0.00 0.00 74 1017.0
20260507131232 26 110 9.7 0.0 0.00 0.00 0.00 74 1017.0
20260507130232 22 120 6.4 0.0 0.00 0.00 0.00 94 1017.0
20260507125230 22 120 6.4 0.0 0.00 0.00 0.00 94 1017.0
20260507124229 22 120 6.4 0.0 0.00 0.00 0.00 94 1017.0
20260507123228 21 120 6.4 0.0 0.00 0.00 0.00 95 1017.0
20260507122226 21 120 6.4 0.0 0.00 0.00 0.00 95 1016.0
20260507121225 21 120 6.4 0.0 0.00 0.00 0.00 95 1016.0
20260507120224 21 100 6.4 0.0 0.00 0.00 0.00 95 1016.0
20260507115223 21 100 6.4 0.0 0.00 0.00 0.00 95 1016.0
20260507114221 21 100 6.4 0.0 0.00 0.00 0.00 95 1016.0
20260507113220 21 100 6.4 0.0 0.00 0.00 0.00 95 1016.0
20260507112219 21 100 6.4 0.0 0.00 0.00 0.00 95 1016.0
20260507111217 21 100 6.4 0.0 0.00 0.00 0.00 95 1016.0
20260507110216 21 110 6.4 0.0 0.00 0.00 0.00 95 1016.0
20260507105215 21 110 6.4 0.0 0.00 0.00 0.00 95 1016.0
20260507104214 21 110 6.4 0.0 0.00 0.00 0.00 95 1016.0
20260507103212 21 110 6.4 0.0 0.00 0.00 0.00 95 1016.0
20260507102211 21 110 6.4 0.0 0.00 0.00 0.00 95 1016.0
20260507101210 21 110 6.4 0.0 0.00 0.00 0.00 95 1016.0
20260507100207 21 110 6.4 0.0 0.00 0.00 0.00 95 1016.0
20260507095206 21 110 6.4 0.0 0.00 0.00 0.00 95 1016.0
20260507094204 21 110 6.4 0.0 0.00 0.00 0.00 95 1016.0
20260507093202 21 110 6.4 0.0 0.00 0.00 0.00 95 1016.0
20260507092201 21 110 6.4 0.0 0.00 0.00 0.00 95 1015.0
20260507091159 21 110 6.4 0.0 0.00 0.00 0.00 95 1015.0
20260507090157 21 110 6.4 0.0 0.00 0.00 0.00 95 1015.0
20260507085156 21 110 6.4 0.0 0.00 0.00 0.00 95 1015.0
20260507084153 21 110 6.4 0.0 0.00 0.00 0.00 95 1015.0
20260507083151 21 110 6.4 0.0 0.00 0.00 0.00 95 1015.0
20260507082149 21 110 6.4 0.0 0.00 0.00 0.00 95 1015.0
20260507081147 21 110 6.4 0.0 0.00 0.00 0.00 95 1015.0
20260507080145 21 110 6.4 0.0 0.00 0.00 0.00 95 1015.0
20260507075144 21 110 6.4 0.0 0.00 0.00 0.00 95 1015.0
20260507074143 21 110 6.4 0.0 0.00 0.00 0.00 95 1015.0
20260507073142 21 110 6.4 0.0 0.00 0.00 0.00 95 1016.0
20260507072141 21 110 6.4 0.0 0.00 0.00 0.00 95 1016.0
20260507071140 22 120 6.4 0.0 0.00 0.00 0.00 96 1016.0
20260507070139 22 120 6.4 0.0 0.00 0.00 0.00 96 1016.0
20260507065138 22 120 6.4 0.0 0.00 0.00 0.00 94 1016.0
20260507064137 22 120 6.4 0.0 0.00 0.00 0.00 94 1016.0
20260507063136 22 120 6.4 0.0 0.00 0.00 0.00 94 1016.0
20260507062134 22 120 6.4 0.0 0.00 0.00 0.00 94 1016.0
20260507061133 22 120 6.4 0.0 0.00 0.00 0.00 94 1016.0
20260507060132 22 130 6.4 0.0 0.00 0.00 0.00 94 1016.0
20260507055131 22 130 6.4 0.0 0.00 0.00 0.00 94 1016.0
20260507054130 22 130 6.4 0.0 0.00 0.00 0.00 94 1016.0
20260507053127 22 130 6.4 0.0 0.00 0.00 0.00 94 1016.0
20260507052125 22 130 6.4 0.0 0.00 0.00 0.00 94 1017.0
20260507051123 22 100 6.4 0.0 0.00 0.00 0.00 94 1017.0
20260507050122 22 100 6.4 0.0 0.00 0.00 0.00 94 1017.0
20260507045121 22 100 6.4 0.0 0.00 0.00 0.00 94 1017.0
20260507044119 23 100 6.4 0.0 0.00 0.00 0.00 94 1017.0
20260507043118 23 100 6.4 0.0 0.00 0.00 0.00 83 1017.0
20260507042116 23 100 6.4 0.0 0.00 0.00 0.00 83 1017.0
20260507041115 23 110 6.4 0.0 0.00 0.00 0.00 83 1017.0
20260507040113 23 110 6.4 0.0 0.00 0.00 0.00 83 1017.0
20260507035112 23 110 6.4 0.0 0.00 0.00 0.00 83 1017.0
20260507034111 23 110 6.4 0.0 0.00 0.00 0.00 83 1017.0
20260507033108 23 110 6.4 0.0 0.00 0.00 0.00 83 1017.0
20260507032107 23 110 6.4 0.0 0.00 0.00 0.00 83 1017.0
20260507031106 23 110 6.4 0.0 0.00 0.00 0.00 83 1017.0
20260507025101 25 70 8.0 0.0 0.00 0.00 0.00 78 1017.0
20260507024059 25 70 8.0 0.0 0.00 0.00 0.00 78 1017.0
20260507023057 25 70 8.0 0.0 0.00 0.00 0.00 78 1017.0
20260507022055 25 70 8.0 0.0 0.00 0.00 0.00 78 1017.0
20260507021053 25 70 8.0 0.0 0.00 0.00 0.00 78 1017.0
20260507020051 26 60 9.7 0.0 0.00 0.00 0.00 65 1017.0
20260507015049 26 60 9.7 0.0 0.00 0.00 0.00 65 1017.0
20260507014048 26 60 9.7 0.0 0.00 0.00 0.00 65 1017.0
20260507013045 26 60 9.7 0.0 0.00 0.00 0.00 65 1017.0
20260507012043 26 60 9.7 0.0 0.00 0.00 0.00 65 1016.0
20260507011042 26 60 9.7 0.0 0.00 0.00 0.00 65 1016.0
20260507010041 27 60 14.5 0.0 0.00 0.00 0.00 61 1016.0
20260507005039 27 60 14.5 0.0 0.00 0.00 0.00 61 1016.0
20260507004038 27 60 14.5 0.0 0.00 0.00 0.00 61 1016.0
20260507003037 27 60 14.5 0.0 0.00 0.00 0.00 61 1016.0
20260507002036 27 60 14.5 0.0 0.00 0.00 0.00 61 1016.0
20260507001035 28 90 12.9 0.0 0.00 0.00 0.00 61 1016.0
20260507000033 28 90 12.9 0.0 0.00 0.00 0.00 61 1016.0
20260506235031 28 90 12.9 0.0 0.00 0.00 0.00 61 1016.0
20260506234030 28 90 12.9 0.0 0.00 0.00 0.00 61 1016.0
20260506233027 27 90 12.9 0.0 0.00 0.00 0.00 61 1016.0